Flag for USA

Past Weather in Detroit, Michigan, USA — Yesterday and Last 2 Weeks

Now
63 °F

Scattered clouds.


Feels Like: 63 °F
Forecast: 63 / 48 °F
Wind: 16 mph from West

Location: Detroit City Airport
Current Time: Sep 30, 2020 at 4:11:37 pm
Latest Report: Sep 30, 2020 at 2:53 pm
Visibility: 10 mi
Pressure29.52 "Hg
Humidity: 54%
Dew Point: 46 °F
Location of DetroitLocation

Past Weather in Detroit — Graph

°F

Detroit Temperature Yesterday

Maximum temperature yesterday: 62 °F (at 12:53 pm)
Minimum temperature yesterday: 51 °F (at 4:53 am)
Average temperature yesterday: 56 °F

High & Low Weather Summary for the Past Weeks

 TemperatureHumidityPressure
High80 °F (Sep 23, 2:53 pm)92% (Sep 29, 4:53 am)30.54 "Hg (Sep 29, 4:53 am)
Low39 °F (Sep 19, 6:53 am)25% (Sep 19, 5:53 pm)29.53 "Hg (Sep 30, 12:53 pm)
Average62 °F66%30.05 "Hg
* Reported Sep 15 1:53 pm — Sep 30 1:53 pm, Detroit. Weather by CustomWeather, © 2020

Note: Actual official high and low records may vary slightly from our data, if they occured in-between our weather recording intervals... More about our weather records

Detroit Weather History for the Previous 24 Hours

Scroll right to see more
 ConditionsComfort  
Time TempWeatherWind HumidityBarometerVisibility
1:53 pm
Wed, Sep 30
61 °FMostly cloudy.15 mph58%29.53 "Hg10 mi
12:53 pm58 °FOvercast.22 mph65%29.53 "Hg10 mi
11:53 am55 °FOvercast.10 mph72%29.55 "Hg10 mi
10:53 am55 °FOvercast.14 mph74%29.59 "Hg10 mi
9:53 am54 °FSunny.13 mph74%29.59 "Hg10 mi
8:53 am52 °FScattered clouds.13 mph77%29.60 "Hg10 mi
7:53 am51 °FPartly sunny.10 mph80%29.60 "Hg10 mi
6:53 am51 °FMostly cloudy.13 mph83%29.61 "Hg10 mi
5:53 am51 °FLight rain. Mostly cloudy.8 mph77%29.61 "Hg10 mi
4:53 am51 °FPassing clouds.9 mph77%29.62 "Hg10 mi
3:53 am51 °FClear.9 mph77%29.64 "Hg10 mi
2:53 am51 °FClear.6 mph77%29.67 "Hg10 mi
1:53 am52 °FClear.5 mph77%29.68 "Hg10 mi
12:53 am53 °FClear.3 mph74%29.71 "Hg10 mi
11:53 pm
Tue, Sep 29
55 °FClear.No wind69%29.73 "Hg10 mi
10:53 pm58 °FOvercast.9 mph60%29.74 "Hg10 mi
9:53 pm59 °FOvercast.10 mph58%29.76 "Hg10 mi
8:53 pm58 °FPassing clouds.7 mph60%29.77 "Hg10 mi
7:53 pm58 °FPassing clouds.7 mph62%29.78 "Hg10 mi
6:53 pm60 °FSunny.9 mph58%29.78 "Hg10 mi
5:53 pm61 °FSunny.10 mph58%29.77 "Hg10 mi
4:53 pm61 °FPassing clouds.12 mph58%29.78 "Hg10 mi
Weather by CustomWeather, © 2020

See weather overview